Wetbulb
66.11 65.45 61.75 59.23 50.16 48.88 44.93 47.85 53.14 55.74 57.32 60.06 58.80 57.46 54.96 55.74 55.93 52.50 63.17 68.79 68.73 67.45 69.63 71.65 73.17 73.17 72.89 72.72 72.42 72.03 71.54 71.19 70.83 70.24 69.42 68.54 68.28 67.44 67.33 67.43 67.33 66.96 66.76 66.52 66.22 66.21 66.51 66.92 67.36
61.94 60.43 59.86 56.63 47.09 43.41 45.84 51.18 54.27 57.28 60.24 61.77 60.63 57.85 56.33 56.39 62.08 62.98 64.26 69.76 69.31 67.51 69.02 69.90 73.22 73.02 73.07 72.67 72.45 72.01 71.78 71.39 70.91 70.28 69.33 68.66 68.35 67.99 67.83 67.74 67.61 67.81 67.76 67.68 67.41 67.32 67.08 67.41 67.81
64.07 58.77 51.78 49.81 47.85 44.71 44.79 54.67 57.13 59.83 61.67 60.80 58.81 60.69 58.42 57.99 64.29 64.38 66.30 71.05 69.27 67.47 68.46 69.08 73.22 73.03 73.07 72.75 72.58 72.31 71.96 71.79 70.90 70.13 70.01 69.46 68.95 68.96 69.43 68.60 68.33 68.54 68.66 69.01 68.83 68.57 68.41 68.38 68.27
59.21 57.67 53.79 47.38 46.98 52.07 53.53 56.23 59.58 59.56 61.13 62.27 59.85 57.04 59.33 64.37 62.88 65.35 70.65 71.33 69.80 68.62 68.03 70.89 73.30 73.13 73.30 73.25 72.90 72.53 72.41 71.89 71.50 70.71 70.44 70.12 69.64 69.90 70.41 69.49 69.31 69.38 69.43 69.72 69.86 69.57 69.41 69.36 69.30
58.45 54.50 45.90 45.62 48.34 53.36 55.78 58.71 58.84 58.88 59.39 60.54 60.87 56.77 57.01 61.98 64.42 65.42 67.99 71.54 70.12 69.11 67.68 70.99 73.03 73.37 73.65 73.50 73.35 72.80 72.65 72.23 72.01 71.81 70.91 70.83 71.19 71.17 70.95 69.97 69.60 69.63 70.09 70.38 70.20 70.06 70.42 69.83 70.04
51.55 52.28 43.71 44.31 48.77 53.63 55.74 57.39 59.38 58.42 59.49 57.74 57.54 56.86 57.24 61.88 62.53 64.13 65.66 65.44 70.50 69.63 68.20 70.71 72.70 73.32 73.35 73.62 73.30 72.95 72.70 72.50 72.31 72.28 72.09 72.04 71.94 71.64 71.52 70.60 70.25 70.67 71.08 70.66 70.00 69.85 69.38 69.75 69.33
52.62 47.33 43.86 46.06 48.33 51.22 54.48 58.00 56.43 56.48 56.61 56.62 58.30 55.69 57.61 60.91 62.81 63.09 64.40 65.07 64.93 70.14 69.20 70.03 70.52 71.74 73.67 73.27 73.09 72.89 72.45 72.30 72.28 72.20 72.06 72.16 72.06 71.91 72.11 71.84 71.47 71.37 71.44 71.35 70.42 69.25 68.71 69.21 69.41
56.35 49.65 44.80 46.64 47.84 49.27 55.70 57.05 56.30 56.67 57.10 60.96 60.25 55.39 53.03 60.33 63.77 63.41 62.43 64.00 64.07 67.96 70.46 69.60 69.77 69.91 70.43 71.33 73.61 73.08 72.64 72.61 72.34 72.30 72.27 72.13 72.25 72.32 72.45 71.89 72.04 72.23 71.81 70.90 70.34 68.96 68.62 68.77 69.18
61.04 47.77 43.47 46.09 48.24 50.75 55.71 54.91 57.98 59.79 58.92 58.79 60.17 59.00 60.19 61.51 63.01 60.93 58.92 59.31 60.59 64.34 70.43 70.01 69.55 69.63 69.55 70.15 71.98 73.26 73.56 73.13 72.73 72.46 72.52 71.38 69.36 69.58 70.21 71.19 71.28 72.23 72.08 71.03 70.26 69.60 69.16 68.63 67.73
56.35 48.60 47.87 52.07 52.70 52.07 55.24 56.29 57.00 57.44 57.97 57.67 59.05 62.16 62.09 62.15 59.88 57.88 57.48 57.41 55.90 57.45 68.11 70.18 69.77 69.53 69.31 70.21 69.75 70.88 71.07 70.79 70.78 70.45 69.81 69.49 68.11 66.34 68.24 69.76 71.91 72.21 72.10 71.08 70.34 69.92 68.63 67.68 63.66
54.82 49.89 53.35 53.43 54.58 55.65 55.81 56.40 58.82 56.85 55.32 57.55 57.74 59.23 60.54 61.16 60.43 58.46 56.97 55.74 56.12 58.04 59.23 70.03 69.75 69.76 69.34 69.18 69.31 70.30 69.99 69.78 70.04 69.09 67.87 68.63 67.94 66.94 67.97 65.69 68.28 69.03 70.73 67.52 68.21 67.03 65.94 64.32 62.89
50.24 53.90 55.60 55.95 56.93 55.74 54.74 57.31 56.43 57.02 56.03 58.88 59.68 60.90 61.90 59.73 59.04 58.20 57.89 57.61 56.64 56.62 57.99 60.71 69.26 70.28 69.78 69.32 68.62 69.59 69.11 68.94 68.64 68.68 66.80 67.68 67.26 67.56 65.94 64.22 64.90 65.15 65.92 64.63 63.74 64.41 64.17 63.38 63.88
50.90 51.88 53.57 56.54 56.74 56.15 57.15 55.98 55.74 55.77 58.65 59.35 59.81 59.39 58.53 58.81 58.74 58.94 58.93 58.84 57.63 57.74 58.96 60.10 66.04 69.54 69.59 67.75 68.66 69.31 69.11 68.73 68.10 67.45 67.38 67.73 67.86 66.19 65.11 63.45 64.50 64.70 64.06 64.45 64.33 64.36 64.64 63.50 63.31
51.25 52.58 53.60 54.28 53.36 54.05 53.65 54.31 55.39 56.10 57.43 57.75 58.19 57.62 58.04 58.55 58.96 58.75 58.83 58.21 58.52 60.72 59.26 60.42 64.82 67.70 68.61 67.82 68.34 69.26 69.52 69.11 67.85 67.80 67.83 68.83 67.66 65.42 65.25 65.25 64.79 64.13 64.19 63.86 63.60 63.13 62.61 61.89 62.33
50.47 47.69 50.23 51.36 52.92 52.61 54.35 51.22 52.36 56.39 57.80 56.77 56.89 57.49 57.49 57.98 59.14 58.44 58.23 58.15 59.82 59.95 60.69 62.18 65.97 67.79 68.22 67.32 68.23 68.79 69.18 68.93 68.40 67.99 68.77 68.36 66.20 64.77 65.72 64.52 64.36 63.84 64.14 64.30 63.44 62.68 62.89 61.95 62.75
48.89 48.55 43.53 49.22 51.47 53.00 53.31 47.07 53.21 56.32 56.35 55.64 56.60 57.39 57.29 56.84 58.46 59.10 58.42 57.72 59.79 58.81 60.62 63.91 69.86 68.53 68.52 67.52 68.24 68.99 68.64 67.12 65.90 65.17 67.36 67.35 65.91 65.68 65.25 64.21 63.57 64.13 63.90 63.73 62.86 62.45 61.83 61.83 61.39
45.12 41.45 43.39 46.22 51.67 51.48 51.28 48.43 53.62 56.11 55.74 55.15 55.97 56.54 57.16 56.81 56.69 57.76 58.91 59.39 60.02 59.95 61.07 64.19 68.03 68.88 69.01 68.81 68.31 68.37 67.83 65.67 65.24 64.87 65.05 67.11 67.00 66.95 65.10 64.61 63.81 63.99 63.66 62.91 62.62 62.02 61.67 60.68 60.33
39.38 41.85 44.47 44.20 48.70 50.29 48.94 48.82 52.20 54.16 54.19 54.60 55.35 56.23 56.69 56.62 55.64 56.79 58.90 59.48 62.19 63.65 64.88 65.35 68.58 68.70 68.95 69.18 68.68 67.76 66.25 64.36 64.62 64.96 64.74 65.83 66.24 67.07 65.56 64.56 63.94 64.32 63.16 61.86 62.04 61.26 61.52 60.87 60.13
44.35 44.60 43.82 47.02 50.04 48.40 47.67 48.52 50.83 53.20 52.79 52.82 53.62 53.74 55.06 55.56 57.19 57.31 59.28 60.24 62.63 63.90 65.37 66.37 68.08 68.04 69.61 68.67 66.79 65.03 63.78 63.35 63.36 64.05 64.58 65.92 66.39 66.54 64.86 63.81 63.53 63.68 61.94 61.48 61.85 61.26 61.27 60.02 60.04
42.43 40.61 41.02 46.09 49.94 48.42 47.65 47.33 50.91 52.74 52.56 53.45 53.90 54.46 54.68 54.48 56.29 58.42 59.33 62.57 62.29 63.64 65.11 65.32 66.72 67.68 67.62 67.34 65.65 64.64 63.90 63.28 63.25 63.44 64.21 65.06 65.34 64.81 64.46 63.72 63.45 62.15 62.25 61.91 61.35 60.61 59.27 58.59 60.36
40.74 39.69 40.43 40.85 44.98 46.58 45.20 43.35 46.26 50.00 51.78 53.59 54.34 55.10 54.85 54.82 54.84 55.75 59.50 61.29 62.53 63.45 63.75 64.39 66.22 67.06 66.70 66.27 65.42 64.87 64.10 63.47 62.68 62.61 63.53 64.50 65.13 65.11 64.32 64.19 63.24 62.21 62.90 61.07 60.73 60.15 59.04 57.19 58.40
37.95 43.98 43.50 42.78 41.51 36.95 44.15 35.60 43.42 46.88 48.57 51.01 52.94 53.88 53.56 54.66 56.08 55.72 59.79 61.22 62.25 63.10 64.05 65.18 66.79 66.16 66.10 64.82 64.10 62.90 61.02 60.02 61.05 61.05 62.96 64.35 64.47 64.32 64.87 64.79 63.72 62.41 62.10 60.74 60.31 61.47 59.59 58.79 57.03
40.44 45.97 43.69 43.40 40.70 39.57 40.60 35.99 42.27 46.48 46.60 49.03 51.38 52.99 53.47 53.80 54.69 55.26 60.52 62.86 62.97 63.56 63.86 65.47 65.68 64.85 65.44 64.18 64.16 63.01 61.85 62.03 61.58 61.80 62.30 62.68 63.18 64.17 65.27 64.63 63.10 62.29 61.51 60.56 60.69 60.47 59.80 59.77 57.73
44.77 43.36 42.64 42.09 39.62 33.14 39.08 38.87 39.70 42.51 45.60 47.91 51.04 52.55 53.11 52.70 54.09 59.84 62.69 63.21 63.05 64.21 64.75 64.94 64.54 64.32 64.41 64.42 64.01 61.92 61.03 61.00 61.03 60.80 60.85 61.03 62.17 62.72 64.11 64.21 62.56 61.92 61.37 61.10 61.53 60.74 59.67 59.71 59.39
40.82 37.30 30.28 29.82 31.14 31.10 40.57 38.58 41.68 45.06 48.50 50.19 50.81 51.59 53.00 53.92 55.15 60.99 61.31 61.92 62.45 63.37 64.28 64.21 63.81 63.39 63.51 64.41 63.48 63.09 61.68 61.11 60.05 61.16 59.99 60.62 61.10 61.52 61.55 61.73 61.32 61.64 62.01 61.85 61.30 60.38 60.17 60.14 60.15
36.52 37.47 31.61 25.17 28.52 32.55 40.97 36.27 40.01 48.69 51.28 51.86 52.59 52.47 53.83 53.50 59.75 60.73 61.31 61.55 62.55 63.78 63.85 63.46 63.59 63.11 63.34 63.07 62.32 62.57 62.13 60.87 61.64 61.58 61.62 61.62 61.03 60.90 61.66 61.78 61.56 61.78 61.80 62.00 60.85 60.28 60.26 60.98 61.21
36.32 33.60 40.26 34.82 37.46 33.16 37.29 41.56 45.63 47.73 48.39 50.61 51.28 53.24 53.24 57.63 60.11 60.35 60.94 61.64 62.88 63.23 62.94 63.12 63.18 63.16 63.27 62.63 62.42 62.13 62.09 62.37 61.74 62.03 62.89 61.81 62.08 63.14 62.27 62.03 61.52 61.59 61.83 61.87 61.36 60.71 60.41 60.68 60.92
40.46 40.68 33.50 36.05 28.06 27.27 35.76 38.04 38.60 44.45 47.07 49.98 50.94 51.14 55.68 59.23 59.76 60.34 60.76 61.85 62.98 63.29 62.57 63.22 63.14 62.90 62.76 62.65 62.04 62.01 61.67 62.45 62.31 62.06 62.08 61.86 61.90 61.80 61.87 61.62 61.44 61.50 62.23 62.27 61.04 61.12 61.58 60.33 60.15
37.98 35.43 36.17 36.04 36.09 30.82 30.47 35.40 44.96 46.00 50.44 48.83 50.85 51.98 57.76 58.68 59.44 60.19 61.00 62.27 62.70 62.85 63.25 62.81 62.78 62.47 62.00 62.01 61.32 63.35 62.15 62.53 61.98 62.15 62.56 61.76 61.20 61.36 61.69 62.07 61.74 61.48 61.21 61.82 61.59 60.74 60.83 60.01 59.84
41.59 37.72 36.94 32.41 31.79 36.68 36.16 36.87 47.15 49.13 49.87 50.97 51.66 53.11 58.58 59.25 59.97 60.40 61.58 62.07 61.90 61.69 62.85 62.13 61.95 61.30 61.64 62.02 61.58 63.20 62.42 62.32 61.84 62.14 62.29 61.75 61.47 61.74 62.13 62.02 61.78 62.00 62.09 61.60 61.17 60.99 61.28 61.21 60.16
MSLP
1011.03 1011.15 1011.32 1011.08 1011.46 1010.85 1009.18 1007.14 1005.69 1004.44 1002.85 1002.46 1001.37 1001.45 1001.81 1002.42 1003.18 1004.87 1004.54 1005.24 1006.20 1007.29 1008.21 1008.58 1009.05 1009.39 1009.53 1009.88 1010.43 1010.83 1011.22 1011.59 1011.90 1012.17 1012.53 1013.01 1013.26 1013.50 1013.87 1013.94 1013.99 1014.18 1014.34 1014.39 1014.48 1014.66 1014.72 1014.63 1014.73
1010.63 1011.14 1011.19 1010.96 1010.73 1010.09 1007.95 1005.99 1004.62 1003.76 1003.16 1002.08 1001.59 1001.30 1001.85 1003.04 1002.78 1003.89 1004.97 1005.45 1005.84 1006.89 1007.74 1008.31 1008.78 1009.06 1009.39 1009.79 1010.18 1010.71 1011.12 1011.42 1011.80 1012.12 1012.45 1012.93 1013.27 1013.37 1013.76 1014.04 1013.93 1014.12 1014.28 1014.31 1014.40 1014.43 1014.44 1014.55 1014.59
1010.69 1010.94 1011.24 1010.62 1009.49 1008.61 1007.12 1005.00 1004.33 1003.72 1003.48 1003.00 1001.96 1001.28 1001.72 1002.73 1002.97 1003.35 1003.90 1005.17 1006.04 1006.93 1007.63 1008.16 1008.62 1008.88 1009.31 1009.67 1010.10 1010.64 1011.01 1011.51 1011.86 1012.11 1012.38 1012.78 1012.99 1013.15 1013.60 1013.96 1013.78 1013.97 1014.10 1014.15 1014.21 1014.23 1014.24 1014.27 1014.32
1010.77 1011.09 1010.76 1009.74 1008.54 1006.94 1006.00 1005.03 1004.32 1004.21 1003.58 1003.23 1002.14 1001.81 1002.18 1002.40 1002.68 1003.11 1004.04 1004.88 1005.59 1006.62 1007.36 1008.02 1008.62 1008.88 1009.21 1009.59 1010.07 1010.51 1010.89 1011.35 1011.70 1011.90 1012.19 1012.56 1012.71 1012.90 1013.26 1013.67 1013.59 1013.67 1013.86 1013.92 1013.98 1014.03 1014.06 1014.09 1014.11
1011.00 1010.85 1010.51 1009.28 1007.63 1005.71 1004.11 1004.03 1003.01 1003.29 1003.75 1002.52 1002.03 1002.21 1002.52 1002.69 1002.73 1003.19 1004.16 1004.61 1005.15 1006.31 1006.75 1007.36 1008.12 1008.76 1009.17 1009.65 1010.01 1010.35 1010.58 1010.92 1011.39 1011.54 1011.84 1012.18 1012.38 1012.59 1012.92 1013.31 1013.29 1013.37 1013.56 1013.67 1013.76 1013.80 1013.79 1013.90 1013.89
1011.06 1010.23 1010.08 1008.98 1007.20 1004.80 1003.41 1003.13 1002.69 1002.34 1002.44 1001.30 1001.50 1001.85 1002.69 1002.78 1002.83 1003.23 1003.32 1004.09 1004.35 1005.08 1005.67 1006.21 1006.83 1007.73 1008.56 1009.22 1009.74 1010.02 1010.20 1010.36 1010.79 1011.03 1011.24 1011.59 1011.87 1012.17 1012.54 1012.89 1012.88 1013.03 1013.20 1013.35 1013.45 1013.57 1013.64 1013.68 1013.68
1010.96 1010.42 1009.58 1008.57 1006.92 1004.64 1003.00 1001.82 1001.80 1001.27 1001.58 1001.46 1001.51 1002.00 1002.86 1002.79 1002.66 1002.81 1002.95 1002.99 1003.45 1004.21 1004.96 1005.57 1006.10 1006.69 1007.00 1007.70 1008.61 1009.44 1009.99 1010.26 1010.47 1010.61 1010.83 1011.13 1011.40 1011.65 1012.05 1012.36 1012.43 1012.63 1012.90 1013.06 1013.11 1013.23 1013.31 1013.39 1013.39
1009.87 1010.46 1009.33 1008.02 1006.82 1004.52 1002.40 1002.23 1001.29 1001.09 1001.31 1001.15 1001.30 1002.10 1002.75 1002.57 1002.31 1002.45 1002.56 1002.73 1002.76 1003.95 1004.46 1005.09 1005.79 1006.23 1006.98 1007.44 1007.87 1007.99 1008.93 1009.68 1010.16 1010.54 1010.68 1010.77 1010.99 1011.23 1011.58 1011.88 1011.93 1012.22 1012.50 1012.70 1012.77 1012.85 1012.94 1013.00 1013.07
1009.18 1009.53 1008.64 1007.35 1006.23 1004.42 1002.28 1002.29 1001.71 1001.00 1000.97 1001.22 1001.64 1001.96 1002.05 1001.81 1002.24 1002.70 1002.85 1002.83 1003.09 1003.55 1004.17 1004.76 1005.17 1005.71 1006.11 1006.87 1007.22 1007.85 1007.75 1008.56 1009.44 1010.04 1010.45 1010.76 1011.08 1011.07 1011.25 1011.35 1011.38 1011.73 1012.06 1012.23 1012.37 1012.46 1012.59 1012.74 1012.80
1008.66 1007.91 1007.43 1006.34 1005.45 1004.41 1003.06 1002.38 1001.97 1001.61 1001.36 1001.52 1001.54 1001.26 1001.76 1001.68 1001.91 1002.00 1002.11 1002.47 1002.67 1002.81 1003.65 1004.26 1004.73 1005.17 1005.86 1006.36 1006.98 1007.52 1008.12 1008.14 1008.70 1009.37 1009.90 1010.42 1010.81 1010.93 1010.82 1010.82 1010.80 1011.07 1011.36 1011.76 1011.96 1012.20 1012.31 1012.40 1012.58
1007.55 1006.32 1006.63 1005.83 1005.15 1004.49 1003.60 1002.52 1001.90 1001.64 1001.82 1001.88 1002.00 1001.48 1001.52 1001.68 1002.34 1002.05 1002.11 1002.26 1002.31 1002.31 1002.62 1003.59 1004.17 1004.69 1005.24 1005.64 1006.22 1006.74 1007.35 1007.94 1008.22 1008.70 1009.28 1009.86 1010.25 1010.47 1010.32 1010.52 1010.39 1010.62 1010.87 1011.41 1011.64 1011.96 1012.06 1012.16 1012.24
1006.86 1006.00 1006.08 1005.35 1004.91 1004.43 1003.62 1002.75 1001.90 1001.74 1001.60 1001.37 1001.35 1001.44 1001.27 1001.56 1001.66 1001.58 1001.67 1001.63 1001.75 1001.79 1001.92 1002.22 1003.11 1003.76 1004.33 1005.01 1005.47 1005.94 1006.56 1007.15 1007.82 1007.91 1008.52 1009.25 1009.80 1009.67 1010.03 1010.21 1010.31 1010.51 1010.69 1011.12 1011.53 1011.68 1011.65 1011.79 1011.89
1005.95 1005.83 1005.38 1004.60 1004.42 1004.00 1003.27 1002.43 1001.72 1001.16 1001.06 1000.87 1000.88 1000.86 1000.91 1001.01 1001.13 1000.99 1000.93 1001.04 1001.21 1001.64 1001.35 1001.54 1002.31 1002.73 1003.38 1004.05 1004.75 1005.29 1005.73 1006.27 1006.56 1006.95 1007.65 1008.29 1008.96 1009.56 1009.92 1009.79 1009.95 1010.16 1010.45 1010.88 1011.33 1011.41 1011.50 1011.62 1011.61
1005.95 1005.57 1004.73 1004.10 1003.60 1003.33 1002.91 1001.95 1001.52 1001.00 1000.87 1000.60 1000.51 1000.52 1000.48 1000.46 1000.58 1000.40 1000.55 1000.52 1000.58 1000.77 1000.79 1000.85 1001.53 1001.93 1002.59 1003.23 1003.88 1004.41 1005.04 1005.55 1005.99 1006.26 1006.68 1007.49 1008.17 1008.88 1009.33 1009.71 1009.85 1010.02 1010.09 1010.38 1010.69 1010.92 1011.23 1011.37 1011.35
1006.29 1005.83 1004.86 1003.43 1003.24 1002.71 1002.95 1000.81 1000.36 1000.66 1000.47 1000.08 1000.02 1000.02 999.96 999.87 999.91 1000.06 999.80 999.95 999.98 1000.00 1000.09 1000.47 1000.89 1001.40 1001.90 1002.45 1003.18 1003.87 1004.41 1004.95 1005.33 1005.70 1005.97 1006.84 1007.56 1008.40 1008.94 1009.34 1009.56 1009.65 1009.67 1009.90 1010.34 1010.71 1010.85 1011.00 1011.13
1006.39 1005.90 1004.10 1003.07 1002.83 1002.29 1003.05 997.83 1000.37 1000.47 1000.38 999.93 999.76 999.70 999.68 999.44 999.53 999.23 999.26 999.24 999.29 999.38 999.71 999.86 1000.16 1000.95 1001.50 1002.14 1002.85 1003.50 1004.04 1004.39 1004.80 1005.31 1005.74 1006.46 1007.26 1007.74 1008.57 1009.02 1009.25 1009.29 1009.51 1009.98 1010.32 1010.59 1010.78 1010.86 1010.99
1005.75 1004.62 1003.50 1002.46 1002.12 1002.44 1002.04 999.43 999.93 999.96 999.79 999.40 999.04 998.92 998.97 998.88 998.74 998.82 998.80 998.66 998.71 998.74 999.14 999.69 1000.23 1000.71 1001.29 1001.88 1002.58 1003.18 1003.70 1004.26 1004.81 1005.38 1005.89 1006.39 1006.89 1007.38 1008.23 1008.76 1008.95 1009.06 1009.54 1009.90 1010.14 1010.43 1010.58 1010.83 1010.95
1005.22 1004.53 1002.66 1001.25 1002.10 1001.71 1001.34 1000.37 999.44 999.43 999.34 998.74 998.45 998.28 998.19 998.21 998.23 998.05 998.11 998.05 998.23 998.39 998.85 999.51 1000.19 1000.75 1001.33 1001.97 1002.68 1003.37 1003.84 1004.34 1004.94 1005.34 1005.86 1006.33 1006.63 1007.07 1007.85 1008.36 1008.64 1008.94 1009.29 1009.63 1009.88 1010.07 1010.24 1010.44 1010.65
1004.68 1003.16 1002.14 1001.85 1002.12 1001.79 1000.95 1000.46 999.02 998.71 998.73 998.14 997.89 998.11 997.72 997.58 997.41 997.40 997.47 998.01 998.52 998.80 999.20 999.66 1000.30 1000.94 1001.33 1002.17 1002.92 1003.66 1004.27 1004.69 1004.95 1005.23 1005.63 1006.08 1006.33 1006.84 1007.62 1008.00 1008.35 1008.60 1008.91 1009.27 1009.49 1009.71 1009.98 1010.23 1010.28
1004.38 1003.48 1002.51 1001.83 1001.67 1001.01 1000.25 1000.07 998.70 998.13 997.67 997.31 997.24 997.16 996.99 997.08 996.98 996.84 997.11 997.92 998.71 999.24 999.67 1000.04 1000.57 1001.16 1001.71 1002.21 1002.88 1003.43 1004.06 1004.44 1004.71 1005.09 1005.48 1005.82 1006.30 1006.82 1007.23 1007.70 1008.11 1008.49 1008.75 1008.99 1009.18 1009.42 1009.72 1010.04 1010.09
1003.58 1002.89 1003.18 1002.22 1002.43 1000.79 1000.47 1000.01 998.85 997.55 996.79 996.51 996.41 996.13 996.30 996.45 996.52 996.54 997.18 997.85 998.56 999.17 999.97 1000.12 1000.76 1001.49 1001.92 1002.32 1002.96 1003.56 1004.09 1004.52 1005.09 1005.43 1005.61 1005.95 1006.28 1006.63 1007.04 1007.47 1007.77 1008.12 1008.40 1008.70 1008.83 1009.12 1009.44 1009.90 1009.97
1002.65 1003.00 1002.74 1002.63 1002.74 1000.52 1001.24 1000.27 998.65 997.47 996.42 996.36 995.95 995.89 995.76 995.51 995.61 995.92 996.87 997.97 998.67 999.41 999.77 1000.30 1000.92 1001.59 1002.03 1002.40 1003.15 1003.66 1004.39 1004.87 1004.99 1005.40 1005.59 1005.92 1006.18 1006.59 1006.89 1007.21 1007.48 1007.77 1008.03 1008.32 1008.49 1008.68 1009.06 1009.49 1009.84
1001.86 1002.17 1002.35 1002.27 1001.88 1001.73 1001.08 1000.97 995.80 996.99 996.18 995.78 995.49 995.38 995.13 994.91 995.20 995.47 996.37 997.66 998.72 999.16 999.95 1000.46 1001.04 1001.72 1002.13 1002.62 1003.13 1003.70 1004.28 1004.62 1004.89 1005.34 1005.72 1006.03 1006.28 1006.61 1006.88 1007.09 1007.35 1007.57 1007.84 1008.05 1008.21 1008.46 1008.77 1009.04 1009.32
1002.56 1002.19 1002.39 1002.30 1002.16 1001.55 1000.15 1000.34 994.02 995.97 995.54 995.16 995.12 994.47 994.19 994.32 994.64 995.34 996.25 997.56 998.65 999.45 1000.00 1000.87 1001.36 1001.94 1002.46 1002.85 1003.26 1003.82 1004.36 1004.86 1005.31 1005.74 1006.13 1006.40 1006.47 1006.52 1006.66 1006.86 1007.06 1007.37 1007.58 1007.74 1007.87 1008.13 1008.38 1008.66 1008.86
1002.16 1002.49 1002.63 1002.37 1001.78 999.75 1000.04 999.37 994.66 994.13 994.32 994.31 994.12 993.94 993.89 993.96 994.54 995.75 996.61 997.88 998.81 999.48 1000.27 1001.20 1001.62 1002.23 1002.61 1003.03 1003.57 1004.02 1004.45 1004.90 1005.32 1005.64 1005.93 1006.21 1006.43 1006.62 1006.66 1006.73 1007.02 1007.17 1007.26 1007.47 1007.66 1007.87 1008.09 1008.33 1008.60
1001.77 1002.09 1001.86 1001.35 1000.52 999.95 999.79 995.96 994.74 993.97 993.12 993.12 993.03 993.16 993.06 993.36 994.58 995.69 996.88 997.76 998.77 999.63 1000.54 1001.17 1001.79 1002.39 1002.80 1003.38 1003.79 1004.09 1004.39 1004.96 1005.34 1005.57 1005.82 1006.07 1006.33 1006.42 1006.51 1006.69 1006.84 1007.06 1007.14 1007.29 1007.54 1007.77 1007.92 1008.01 1008.12
1001.54 1001.27 1000.55 1001.54 1000.61 999.87 997.94 995.86 994.05 993.31 992.57 992.38 992.48 992.67 993.00 993.81 994.71 995.84 996.94 997.99 998.91 999.81 1000.66 1001.21 1001.83 1002.47 1003.05 1003.49 1003.91 1004.29 1004.60 1005.10 1005.39 1005.54 1005.64 1005.92 1006.05 1006.28 1006.40 1006.59 1006.75 1006.88 1007.03 1007.20 1007.44 1007.71 1007.83 1007.90 1008.01
1001.54 1000.86 1001.36 1000.29 1000.43 999.73 997.30 995.71 994.27 992.44 991.75 990.87 991.77 992.32 993.05 994.03 995.14 996.21 997.09 998.16 999.05 1000.03 1000.61 1001.15 1001.87 1002.65 1003.12 1003.56 1003.99 1004.39 1004.60 1004.85 1005.24 1005.43 1005.65 1005.75 1005.97 1006.17 1006.34 1006.45 1006.68 1006.84 1006.99 1007.20 1007.39 1007.59 1007.63 1007.84 1007.99
1001.27 1000.51 1000.87 1000.52 999.84 999.36 997.81 994.80 993.09 992.19 990.49 990.38 991.12 991.71 992.97 993.94 995.14 996.16 997.14 998.02 999.04 999.93 1000.54 1001.24 1001.98 1002.62 1003.18 1003.57 1004.03 1004.28 1004.61 1004.80 1005.08 1005.36 1005.46 1005.66 1005.88 1006.03 1006.21 1006.39 1006.55 1006.73 1007.03 1007.10 1007.34 1007.45 1007.64 1007.96 1008.16
1001.70 1000.60 1000.60 1000.72 999.72 998.82 997.25 993.75 992.50 991.45 990.32 989.75 990.43 991.45 992.61 993.69 995.00 995.91 996.89 997.90 999.01 999.82 1000.54 1001.33 1001.96 1002.59 1003.05 1003.56 1004.01 1004.32 1004.68 1004.94 1005.28 1005.47 1005.55 1005.63 1005.83 1006.02 1006.09 1006.26 1006.47 1006.67 1006.88 1007.12 1007.28 1007.53 1007.66 1007.98 1008.24
Wind_Speed
4 3 2 2 4 2 5 8 14 6 8 10 5 6 2 5 5 5 5 12 18 17 15 16 19 19 19 18 17 17 17 16 16 15 13 12 11 11 10 9 9 7 5 4 3 3 2 2 3
3 4 2 2 3 1 6 9 6 5 4 12 19 1 6 7 7 10 9 15 18 18 15 14 20 20 19 19 18 17 17 17 15 15 14 13 12 11 9 8 8 7 7 6 5 5 4 5 5
3 6 3 4 4 7 6 1 9 8 8 5 11 1 4 7 5 6 13 18 17 15 13 13 20 20 19 19 18 17 16 15 15 15 14 13 12 10 9 8 8 7 7 7 7 6 6 7 7
2 2 4 1 8 15 18 8 6 7 13 18 13 1 5 1 4 9 19 19 17 15 15 15 19 19 19 19 18 17 16 15 15 15 14 13 12 11 10 10 9 8 8 8 8 8 8 8 8
2 3 3 4 9 13 19 5 10 15 10 23 25 3 8 4 11 10 17 17 18 16 16 18 22 19 18 18 18 18 18 17 17 16 16 15 13 12 12 12 10 10 10 10 9 9 8 8 9
2 3 2 7 12 18 17 7 14 8 16 5 5 8 4 7 9 9 9 14 17 19 19 19 28 25 21 19 19 19 19 19 19 18 18 17 15 14 13 13 12 12 12 12 10 8 6 4 6
2 3 7 8 14 20 16 6 9 5 6 7 3 5 4 7 8 10 11 10 12 18 17 16 18 23 27 25 23 20 19 19 19 19 19 18 17 15 14 14 14 13 13 12 11 10 8 7 7
4 3 6 7 12 19 17 12 4 2 3 5 5 3 3 6 11 9 8 9 9 15 15 15 16 17 17 17 25 25 22 21 19 19 18 18 17 16 15 15 14 14 14 14 12 11 10 9 9
6 4 7 9 12 15 19 12 6 2 4 2 3 3 5 6 8 6 5 5 5 6 14 14 15 16 17 16 17 22 25 23 21 18 18 13 6 8 11 14 17 15 16 15 14 13 11 11 11
11 9 15 17 14 13 19 17 14 6 1 3 8 4 13 13 2 2 3 5 4 6 14 13 15 16 15 13 14 14 13 12 12 11 10 7 6 6 10 12 19 18 19 16 15 14 13 12 4
16 18 15 18 18 19 21 20 17 10 13 5 5 10 13 11 8 1 3 3 5 6 4 16 14 14 16 14 11 8 8 8 8 11 9 8 7 7 6 3 3 7 13 6 9 7 6 6 5
20 18 18 19 20 23 24 22 19 15 11 10 13 9 2 10 6 6 7 7 8 7 5 8 16 15 16 10 10 11 9 9 8 10 11 8 6 7 5 3 5 5 4 6 4 4 6 6 7
23 18 19 21 22 25 24 25 20 19 16 13 14 14 8 9 8 8 9 9 9 7 6 4 13 16 15 13 10 10 11 10 10 10 11 10 8 5 4 4 4 5 5 5 5 5 5 5 6
9 15 21 19 22 22 23 25 21 21 13 14 19 18 11 9 10 8 9 10 7 7 6 6 10 13 15 14 13 11 10 10 9 9 11 11 7 5 4 4 4 5 5 4 5 4 4 4 3
17 22 21 25 18 23 22 30 28 15 13 16 14 15 11 10 11 11 11 8 9 7 7 8 10 11 16 14 9 9 9 9 10 9 11 12 8 6 5 4 3 4 4 5 3 3 3 3 3
18 18 22 19 21 22 17 40 14 18 17 16 15 18 12 11 10 11 9 7 9 6 8 8 9 11 9 9 6 6 6 5 6 5 7 10 8 8 5 4 3 3 3 4 3 3 3 4 3
14 22 25 24 21 17 16 30 23 16 18 20 19 20 17 14 11 8 8 8 9 9 7 7 9 12 10 8 6 6 7 5 5 5 5 8 9 7 6 4 4 4 4 3 3 4 3 3 3
11 21 26 30 12 16 20 28 29 27 23 24 21 18 17 16 10 9 10 10 7 7 8 8 8 10 9 6 6 4 5 4 5 4 6 8 6 7 6 5 5 5 4 3 3 5 4 3 4
16 25 20 16 19 17 23 25 27 17 11 16 17 9 10 10 11 9 9 3 8 7 8 8 11 8 9 7 5 4 5 3 2 4 7 8 6 7 6 5 4 5 4 5 5 4 5 4 4
24 24 20 14 13 17 21 18 23 20 17 22 21 18 12 8 8 7 6 9 6 8 8 9 8 8 6 5 4 4 4 3 4 4 5 7 7 7 6 5 5 5 4 4 5 4 2 3 4
26 26 16 22 14 23 16 16 18 17 11 9 10 14 9 12 11 10 6 10 9 9 9 9 8 8 7 7 5 4 4 3 3 2 2 4 6 6 5 6 5 4 3 4 5 5 6 4 3
25 13 22 21 14 22 6 15 22 17 21 15 19 15 11 12 9 9 8 9 10 8 9 8 9 9 7 8 5 4 4 3 3 4 3 4 6 6 5 4 4 4 4 4 4 4 4 4 4
22 14 19 15 18 17 17 6 28 9 12 9 11 14 12 10 10 11 12 13 10 10 8 9 9 8 6 7 7 5 5 2 3 4 7 4 3 4 5 6 5 4 4 3 6 5 5 4 3
17 17 21 16 12 13 15 14 33 18 19 6 9 13 9 10 10 11 15 15 12 10 10 9 9 6 7 7 7 7 5 6 4 4 4 3 2 1 4 5 5 4 4 5 4 4 6 5 4
15 13 8 9 12 18 11 11 23 5 12 12 16 12 10 9 6 16 18 15 13 13 11 8 8 7 7 8 7 7 7 6 5 5 3 2 0 1 2 3 4 3 4 4 4 3 4 5 3
13 13 11 17 13 12 11 15 11 16 19 17 20 15 10 10 14 17 15 15 15 14 12 10 9 8 8 8 7 6 6 2 2 3 2 3 2 2 4 4 3 3 4 3 4 2 2 3 3
21 20 13 13 20 6 8 19 24 23 24 18 15 8 9 11 18 17 16 13 14 14 12 10 10 7 7 8 7 6 4 5 4 4 4 3 4 3 5 5 4 3 4 5 5 3 2 3 3
14 10 6 12 18 16 11 17 11 17 16 18 9 10 9 17 16 16 14 14 13 12 9 10 9 8 8 8 7 5 7 6 6 4 4 5 4 3 6 5 4 4 5 4 4 2 3 5 3
9 18 13 6 12 12 10 14 15 10 11 9 10 11 17 18 17 16 14 14 14 11 12 9 9 8 8 8 6 6 5 6 5 4 5 4 4 7 6 5 5 4 4 3 3 4 5 5 5
16 20 16 10 8 10 11 14 9 11 1 8 12 12 19 19 18 16 17 16 14 11 11 9 8 8 8 7 7 6 6 6 6 5 4 4 4 5 6 5 5 5 5 3 4 3 5 6 5
Wind_Direction
142 167 254 4 55 110 254 256 237 300 10 346 33 67 51 63 97 164 182 120 130 144 160 166 167 165 162 160 157 155 154 155 157 154 150 152 153 153 156 160 158 162 166 167 173 198 232 244 262
168 189 297 278 113 221 277 233 73 147 291 1 318 220 72 78 89 111 111 144 141 148 160 167 172 170 168 164 163 163 163 163 162 157 157 162 165 163 169 182 177 183 194 199 210 219 229 244 256
10 228 15 192 190 203 236 321 35 4 342 275 261 156 103 127 117 131 142 139 133 145 158 170 175 173 173 169 169 170 169 168 165 165 166 172 173 171 183 196 193 208 219 226 229 230 241 244 249
147 271 285 257 258 266 248 275 118 54 5 333 282 100 67 43 110 148 136 136 137 150 158 170 180 178 177 174 173 174 172 171 174 173 176 182 181 184 193 209 211 218 230 240 249 247 246 247 253
258 272 254 241 257 265 266 195 159 161 190 202 241 178 128 62 112 111 136 147 146 156 166 168 179 185 182 180 178 178 177 177 183 181 184 190 190 193 199 212 217 227 236 241 251 262 269 272 252
283 191 269 241 260 265 278 230 192 174 209 6 67 114 145 142 114 153 151 164 162 163 171 172 176 180 182 184 185 184 185 184 188 186 189 193 193 198 201 212 218 227 235 239 245 252 255 251 243
227 334 236 257 267 281 281 15 303 20 43 39 72 73 140 125 154 160 173 186 169 172 166 173 179 182 180 180 184 187 190 193 195 192 194 194 196 198 203 211 217 226 229 229 235 236 234 237 238
188 221 277 264 278 283 290 316 344 359 76 105 79 33 122 218 186 173 189 187 199 158 171 172 174 178 182 184 186 183 189 196 199 201 201 199 198 200 205 212 215 219 219 221 224 230 232 231 231
229 227 250 253 249 265 293 314 305 217 341 300 84 27 300 260 171 181 220 216 186 172 170 177 175 178 180 185 189 188 186 192 196 201 205 203 201 205 213 218 218 212 215 215 217 224 230 233 234
221 232 231 248 265 274 287 298 300 338 11 280 269 4 327 294 223 237 284 290 276 285 179 177 176 181 174 181 184 186 195 192 190 193 194 189 197 214 217 219 228 208 213 209 216 223 231 243 220
236 239 245 257 267 276 290 290 302 304 268 281 262 194 222 233 244 276 271 269 258 239 157 181 182 176 176 184 178 183 185 187 184 185 181 187 202 224 218 215 228 197 210 196 214 225 222 216 231
250 245 239 257 264 275 272 280 281 282 275 289 292 237 261 308 252 237 253 262 267 265 254 156 184 175 183 179 180 177 179 185 188 191 181 183 200 212 215 193 188 165 181 187 202 207 210 208 228
236 244 244 246 243 251 265 269 275 277 283 287 289 297 279 261 256 240 227 237 250 239 239 225 164 179 182 179 177 178 183 184 184 179 188 192 196 189 215 236 162 181 164 186 206 204 203 209 229
264 255 259 250 250 257 261 264 262 262 267 279 284 277 267 261 252 264 241 241 200 209 234 228 179 183 173 179 176 181 180 179 181 180 189 182 175 178 187 223 202 173 178 180 181 178 185 202 206
258 260 263 259 262 254 267 269 260 268 265 263 269 277 261 260 255 253 232 203 185 200 219 212 180 167 175 176 164 172 179 175 180 185 170 168 163 170 176 199 213 199 182 161 165 207 186 230 230
255 264 256 246 255 253 257 260 270 278 275 269 270 270 266 265 256 265 220 202 204 201 206 192 167 169 162 160 148 144 162 149 154 138 145 153 158 165 182 202 214 200 170 152 162 193 227 226 227
234 239 248 253 236 254 236 268 265 269 263 256 257 260 259 249 258 256 245 226 222 223 197 183 163 162 155 144 142 139 139 124 132 128 128 154 164 166 170 189 214 170 150 166 188 215 189 206 222
215 228 238 246 237 237 241 256 263 258 260 258 261 253 246 241 232 249 238 234 191 140 144 148 152 141 135 128 121 106 105 128 132 138 152 169 164 173 176 197 204 167 160 210 199 210 211 180 201
252 236 249 248 240 260 254 258 267 262 251 264 273 269 243 219 225 235 236 210 119 104 109 131 138 148 139 146 130 124 137 137 106 142 162 159 172 177 180 186 181 165 193 218 205 207 191 214 192
246 262 266 275 248 247 250 259 261 253 253 250 256 256 246 236 224 231 187 150 143 133 126 114 117 131 118 122 118 127 134 148 166 175 190 170 163 164 161 164 169 186 202 220 215 195 162 193 187
231 241 251 258 284 282 289 289 280 281 268 265 249 247 237 211 218 230 170 152 141 139 143 136 129 128 121 133 116 98 83 64 72 94 158 158 145 155 155 171 180 209 198 210 208 182 175 187 226
240 236 238 254 253 254 189 267 263 266 264 261 265 272 242 226 219 215 145 149 144 148 135 125 123 124 125 136 110 131 139 137 168 170 141 145 151 170 160 175 178 188 193 206 208 186 179 147 186
251 237 245 247 242 262 257 278 264 212 248 244 257 251 240 235 218 223 157 146 146 131 126 116 118 122 124 137 134 123 110 129 137 115 116 121 115 136 179 183 186 196 194 204 186 190 193 183 159
263 241 248 259 260 263 242 223 267 243 248 244 252 252 243 243 238 132 128 130 126 120 113 121 126 130 128 113 128 128 124 88 92 105 126 151 161 158 203 186 174 191 186 200 212 197 185 189 189
261 231 249 244 230 237 217 242 234 242 235 218 243 244 248 234 149 138 138 135 136 129 123 130 123 127 125 103 115 105 109 105 109 110 121 121 98 142 180 151 155 185 203 211 184 174 182 190 196
256 234 216 214 223 248 249 241 233 234 259 239 241 248 246 209 136 138 138 136 137 131 135 135 127 129 124 123 120 113 114 110 89 134 133 132 152 156 162 155 168 194 180 178 158 159 190 199 228
251 250 248 259 278 239 235 244 263 260 260 257 246 218 199 121 132 135 133 135 135 137 143 136 130 133 138 135 128 132 151 139 154 146 120 145 142 157 157 154 170 194 186 166 157 166 207 203 239
234 265 241 222 235 250 254 245 249 266 266 245 211 185 130 126 127 129 133 134 134 142 135 131 135 148 150 138 139 168 178 143 143 136 136 147 166 149 143 150 171 159 127 137 143 144 157 115 109
269 238 239 278 216 226 260 256 260 264 238 186 187 149 140 139 139 140 136 133 136 137 138 138 139 144 140 141 170 154 160 125 119 126 138 162 137 154 153 166 155 132 138 159 145 133 148 127 105
289 256 231 229 255 234 266 250 257 264 222 143 164 138 144 140 142 140 135 135 140 137 139 141 139 142 149 157 152 155 125 123 126 128 144 167 151 163 161 158 147 138 139 141 139 141 151 147 146